WA4ISB-1 Weather Reports


time (UTC)temp
C
wind
direction
speed
KPH
gust
KPH
rain 1hr
cm
rain 24hr
cm
rain mn
cm
humidity
%
barometer
mb
20210422165202 25 358 0.0 0.0 0.00 0.00 0.00 49 1018.4
20210422164701 25 358 0.0 0.0 0.00 0.00 0.00 50 1018.4
20210422164201 25 358 0.0 0.0 0.00 0.00 0.00 49 1018.5
20210422163700 25 358 0.0 0.0 0.00 0.00 0.00 49 1018.6
20210422163201 25 358 0.0 8.0 0.00 0.00 0.00 48 1018.6
20210422162700 25 358 8.0 8.0 0.00 0.00 0.00 51 1018.5
20210422162409 25 358 0.0 0.0 0.00 0.00 0.00 49 1018.6
20210422162200 25 358 0.0 0.0 0.00 0.00 0.00 49 1018.6
20210422161659 25 358 0.0 0.0 0.00 0.00 0.00 51 1018.6
20210422161159 25 358 0.0 0.0 0.00 0.00 0.00 53 1018.7
20210422160659 24 358 0.0 0.0 0.00 0.00 0.00 52 1018.7
20210422155659 24 358 0.0 0.0 0.00 0.00 0.00 53 1018.7
20210422155158 24 358 0.0 0.0 0.00 0.00 0.00 54 1018.7
20210422154658 24 358 0.0 0.0 0.00 0.00 0.00 53 1018.7
20210422153657 23 358 0.0 0.0 0.00 0.00 0.00 56 1018.7
20210422153542 23 358 0.0 0.0 0.00 0.00 0.00 57 1018.7
20210422153157 23 358 0.0 0.0 0.00 0.00 0.00 57 1018.7
20210422152656 23 358 0.0 0.0 0.00 0.00 0.00 56 1018.6
20210422152156 23 358 0.0 0.0 0.00 0.00 0.00 56 1018.7
20210422151656 23 358 0.0 0.0 0.00 0.00 0.00 57 1018.7
20210422151155 23 358 0.0 0.0 0.00 0.00 0.00 57 1018.8
20210422150155 23 358 0.0 0.0 0.00 0.00 0.00 57 1018.8
20210422145840 23 358 0.0 0.0 0.00 0.00 0.00 58 1018.9
20210422145655 23 358 0.0 0.0 0.00 0.00 0.00 58 1018.9
20210422145156 22 358 0.0 0.0 0.00 0.00 0.00 61 1018.9
20210422145006 21 358 0.0 0.0 0.00 0.00 0.00 60 1019.0
20210422144654 22 358 0.0 0.0 0.00 0.00 0.00 62 1019.0
20210422144154 21 358 0.0 0.0 0.00 0.00 0.00 60 1019.0
20210422143943 22 358 0.0 0.0 0.00 0.00 0.00 61 1018.9
20210422143653 22 358 0.0 0.0 0.00 0.00 0.00 61 1018.9
20210422143335 21 358 0.0 0.0 0.00 0.00 0.00 62 1019.0
20210422143153 21 358 0.0 0.0 0.00 0.00 0.00 62 1019.0
20210422142708 21 358 0.0 0.0 0.00 0.00 0.00 60 1019.0
20210422142653 21 358 0.0 0.0 0.00 0.00 0.00 60 1019.0
20210422142346 21 358 0.0 0.0 0.00 0.00 0.00 60 1019.0
20210422142153 21 358 0.0 0.0 0.00 0.00 0.00 60 1019.0
20210422141652 21 358 0.0 0.0 0.00 0.00 0.00 60 1019.0
20210422141152 21 358 0.0 0.0 0.00 0.00 0.00 62 1019.0
20210422140901 21 358 0.0 0.0 0.00 0.00 0.00 64 1019.0
20210422140652 21 358 0.0 0.0 0.00 0.00 0.00 64 1019.0
20210422140151 21 358 0.0 0.0 0.00 0.00 0.00 63 1019.1
20210422135847 21 358 0.0 0.0 0.00 0.00 0.00 62 1019.1
20210422135651 21 358 0.0 0.0 0.00 0.00 0.00 62 1019.1
20210422135151 21 358 0.0 0.0 0.00 0.00 0.00 61 1019.0
20210422135128 20 358 0.0 0.0 0.00 0.00 0.00 66 1019.0
20210422134847 21 358 0.0 0.0 0.00 0.00 0.00 64 1019.0
20210422134650 21 358 0.0 0.0 0.00 0.00 0.00 64 1019.0
20210422134340 20 358 0.0 0.0 0.00 0.00 0.00 66 1019.0
20210422134150 20 358 0.0 0.0 0.00 0.00 0.00 66 1019.0
20210422133845 20 358 0.0 0.0 0.00 0.00 0.00 64 1019.0
20210422133650 20 358 0.0 0.0 0.00 0.00 0.00 64 1019.0
20210422133150 20 358 0.0 0.0 0.00 0.00 0.00 64 1019.0
20210422133053 20 358 0.0 0.0 0.00 0.00 0.00 66 1019.1
20210422132920 20 358 0.0 0.0 0.00 0.00 0.00 65 1019.1
20210422132649 20 358 0.0 0.0 0.00 0.00 0.00 65 1019.1
20210422132149 20 358 0.0 0.0 0.00 0.00 0.00 66 1019.1
20210422132039 19 358 0.0 0.0 0.00 0.00 0.00 66 1018.6
20210422131649 20 358 0.0 0.0 0.00 0.00 0.00 66 1018.8
20210422131148 19 358 0.0 0.0 0.00 0.00 0.00 66 1018.6
20210422131108 19 358 0.0 0.0 0.00 0.00 0.00 66 1018.6
20210422130648 19 358 0.0 0.0 0.00 0.00 0.00 66 1018.6
20210422130148 19 358 0.0 0.0 0.00 0.00 0.00 67 1018.7
20210422125712 18 358 0.0 0.0 0.00 0.00 0.00 69 1018.6
20210422125648 19 358 0.0 0.0 0.00 0.00 0.00 68 1018.7
20210422125147 18 358 0.0 0.0 0.00 0.00 0.00 69 1018.6
20210422124841 18 358 0.0 0.0 0.00 0.00 0.00 69 1018.5
20210422124647 18 358 0.0 0.0 0.00 0.00 0.00 69 1018.4
20210422124147 18 358 0.0 0.0 0.00 0.00 0.00 69 1018.5
20210422123959 18 358 0.0 0.0 0.00 0.00 0.00 70 1018.5
20210422123646 18 358 0.0 0.0 0.00 0.00 0.00 70 1018.5
20210422123147 18 358 0.0 0.0 0.00 0.00 0.00 71 1018.5
20210422122724 18 358 0.0 0.0 0.00 0.00 0.00 71 1018.5
20210422122648 18 358 0.0 0.0 0.00 0.00 0.00 71 1018.5
20210422121645 18 358 0.0 0.0 0.00 0.00 0.00 73 1018.5
20210422121145 18 358 0.0 0.0 0.00 0.00 0.00 74 1018.5
20210422120645 17 358 0.0 0.0 0.00 0.00 0.00 76 1018.5
20210422120144 17 358 0.0 0.0 0.00 0.00 0.00 77 1018.5
20210422115644 17 358 0.0 0.0 0.00 0.00 0.00 78 1018.4
20210422115144 17 358 0.0 0.0 0.00 0.00 0.00 78 1018.4
20210422114643 17 358 0.0 0.0 0.00 0.00 0.00 78 1018.4
20210422114143 17 358 0.0 0.0 0.00 0.00 0.00 78 1018.4
20210422113643 17 358 0.0 0.0 0.00 0.00 0.00 78 1018.3
20210422113143 17 358 0.0 0.0 0.00 0.00 0.00 77 1018.3
20210422112901 17 358 0.0 0.0 0.00 0.00 0.00 77 1018.2
20210422112642 17 358 0.0 0.0 0.00 0.00 0.00 77 1018.2
20210422112142 18 358 0.0 0.0 0.00 0.00 0.00 77 1018.0
20210422111808 18 358 0.0 0.0 0.00 0.00 0.00 77 1017.5
20210422111642 18 358 0.0 0.0 0.00 0.00 0.00 76 1017.9
20210422110643 18 358 0.0 0.0 0.00 0.00 0.00 77 1017.7
20210422110328 18 358 0.0 0.0 0.00 0.00 0.00 77 1017.7
20210422110247 18 358 0.0 0.0 0.00 0.00 0.00 77 1017.7
20210422110141 18 358 0.0 0.0 0.00 0.00 0.00 77 1017.7
20210422105832 18 358 0.0 0.0 0.00 0.00 0.00 77 1017.5
20210422105743 18 358 0.0 0.0 0.00 0.00 0.00 77 1017.5
20210422105640 18 358 0.0 0.0 0.00 0.00 0.00 77 1017.5
20210422105345 18 358 0.0 0.0 0.00 0.00 0.00 77 1017.4
20210422105142 18 358 0.0 0.0 0.00 0.00 0.00 77 1017.4
20210422104640 18 358 0.0 0.0 0.00 0.00 0.00 79 1017.3
20210422104142 18 358 0.0 0.0 0.00 0.00 0.00 80 1017.3
20210422103834 18 358 0.0 0.0 0.00 0.00 0.00 81 1017.1
20210422103639 18 358 0.0 0.0 0.00 0.00 0.00 81 1017.1
20210422103142 18 358 0.0 0.0 0.00 0.00 0.00 84 1017.0
20210422102640 18 358 0.0 0.0 0.00 0.00 0.00 87 1017.0
20210422102215 16 358 0.0 0.0 0.00 0.00 0.00 89 1016.8
20210422102139 17 358 0.0 0.0 0.00 0.00 0.00 88 1017.0
20210422101638 17 358 0.0 0.0 0.00 0.00 0.00 90 1016.9
20210422101138 17 358 0.0 0.0 0.00 0.00 0.00 90 1016.9
20210422100638 16 358 0.0 0.0 0.00 0.00 0.00 90 1016.8
20210422100137 16 358 0.0 0.0 0.00 0.00 0.00 89 1016.8
20210422095637 16 358 0.0 0.0 0.00 0.00 0.00 89 1016.8
20210422095137 16 358 0.0 0.0 0.00 0.00 0.00 89 1016.8
20210422094636 16 358 0.0 0.0 0.00 0.00 0.00 89 1016.7
20210422094136 16 358 0.0 0.0 0.00 0.00 0.00 88 1016.7
20210422093636 16 358 0.0 0.0 0.00 0.00 0.00 88 1016.7
20210422093005 16 358 0.0 0.0 0.00 0.00 0.00 88 1016.6
20210422092801 16 358 0.0 0.0 0.00 0.00 0.00 88 1016.6
20210422092714 16 358 0.0 0.0 0.00 0.00 0.00 88 1016.6
20210422092635 16 358 0.0 0.0 0.00 0.00 0.00 88 1016.6
20210422091244 16 358 0.0 0.0 0.00 0.00 0.00 87 1016.6
20210422091212 16 358 0.0 0.0 0.00 0.00 0.00 87 1016.6
20210422091135 16 358 0.0 0.0 0.00 0.00 0.00 87 1016.6
20210422090634 16 358 0.0 0.0 0.00 0.00 0.00 87 1016.5
20210422090242 17 358 0.0 0.0 0.00 0.00 0.00 86 1016.4
20210422090134 17 358 0.0 0.0 0.00 0.00 0.00 87 1016.5
20210422085633 17 358 0.0 0.0 0.00 0.00 0.00 87 1016.6
20210422085133 17 358 0.0 0.0 0.00 0.00 0.00 87 1016.6
20210422083632 17 358 0.0 0.0 0.00 0.00 0.00 86 1016.4
20210422082634 17 358 0.0 0.0 0.00 0.00 0.00 85 1016.4
20210422082236 17 358 0.0 0.0 0.00 0.00 0.00 85 1016.3
20210422082131 17 358 0.0 0.0 0.00 0.00 0.00 85 1016.3
20210422081633 17 358 0.0 0.0 0.00 0.00 0.00 85 1016.3
20210422081222 17 358 0.0 0.0 0.00 0.00 0.00 84 1016.2
20210422081131 17 358 0.0 0.0 0.00 0.00 0.00 84 1016.2
20210422080022 18 358 0.0 0.0 0.00 0.00 0.00 79 1016.1
20210422075630 17 358 0.0 0.0 0.00 0.00 0.00 83 1016.2
20210422075130 17 358 0.0 0.0 0.00 0.00 0.00 82 1016.2
20210422074629 17 358 0.0 0.0 0.00 0.00 0.00 82 1016.1
20210422074129 17 358 0.0 0.0 0.00 0.00 0.00 82 1016.1
20210422073702 18 358 0.0 0.0 0.00 0.00 0.00 82 1016.0
20210422073629 18 358 0.0 0.0 0.00 0.00 0.00 82 1016.0
20210422073129 18 358 0.0 0.0 0.00 0.00 0.00 81 1016.1
20210422072631 18 358 0.0 0.0 0.00 0.00 0.00 81 1016.1
20210422072213 18 358 0.0 0.0 0.00 0.00 0.00 80 1016.0
20210422072128 18 358 0.0 0.0 0.00 0.00 0.00 80 1016.0
20210422071628 18 358 0.0 0.0 0.00 0.00 0.00 80 1016.1
20210422071230 18 358 0.0 0.0 0.00 0.00 0.00 80 1016.1
20210422071127 18 358 0.0 0.0 0.00 0.00 0.00 80 1016.1
20210422070732 18 358 0.0 0.0 0.00 0.00 0.00 79 1016.1
20210422070627 18 358 0.0 0.0 0.00 0.00 0.00 79 1016.1
20210422070127 18 358 0.0 0.0 0.00 0.00 0.00 79 1016.1
20210422065759 19 358 0.0 0.0 0.00 0.00 0.00 78 1016.1
20210422065626 19 358 0.0 0.0 0.00 0.00 0.00 78 1016.1
20210422065128 19 358 0.0 0.0 0.00 0.00 0.00 77 1016.1
20210422064627 19 358 0.0 0.0 0.00 0.00 0.00 76 1016.1
20210422063125 20 358 0.0 0.0 0.00 0.00 0.00 74 1016.1
20210422062625 20 358 0.0 0.0 0.00 0.00 0.00 73 1016.2
20210422062124 20 358 0.0 0.0 0.00 0.00 0.00 73 1016.2
20210422061624 20 358 0.0 0.0 0.00 0.00 0.00 73 1016.3
20210422061124 20 358 0.0 0.0 0.00 0.00 0.00 73 1016.3
20210422060624 20 358 0.0 0.0 0.00 0.00 0.00 72 1016.2
20210422060123 20 358 0.0 0.0 0.00 0.00 0.00 73 1016.0
20210422055732 20 358 0.0 0.0 0.00 0.00 0.00 73 1015.8
20210422055623 20 358 0.0 0.0 0.00 0.00 0.00 73 1015.8
20210422055123 20 358 0.0 0.0 0.00 0.00 0.00 73 1015.9
20210422054624 20 358 0.0 0.0 0.00 0.00 0.00 72 1015.9
20210422054223 20 358 0.0 0.0 0.00 0.00 0.00 72 1015.9
20210422054122 20 358 0.0 0.0 0.00 0.00 0.00 72 1015.9
20210422053622 20 358 0.0 0.0 0.00 0.00 0.00 72 1015.8
20210422053122 20 358 0.0 0.0 0.00 0.00 0.00 72 1015.8
20210422052622 20 358 0.0 0.0 0.00 0.00 0.00 72 1015.8
20210422052121 20 358 0.0 0.0 0.00 0.00 0.00 71 1015.8
20210422051621 20 358 0.0 0.0 0.00 0.00 0.00 71 1015.9
20210422051230 21 358 0.0 0.0 0.00 0.00 0.00 70 1016.0
20210422051120 21 358 0.0 0.0 0.00 0.00 0.00 70 1016.0
20210422050120 21 358 0.0 0.0 0.00 0.00 0.00 69 1016.2
20210422045802 21 358 0.0 0.0 0.00 0.00 0.00 69 1016.2
20210422045619 21 358 0.0 0.0 0.00 0.00 0.00 69 1016.2
20210422044619 21 358 0.0 0.0 0.00 0.00 0.00 68 1016.3
20210422044223 21 358 0.0 0.0 0.00 0.00 0.00 68 1016.4
20210422044119 21 358 0.0 0.0 0.00 0.00 0.00 68 1016.3
20210422043618 21 358 0.0 0.0 0.00 0.00 0.00 68 1016.4
20210422043118 21 358 0.0 0.0 0.00 0.00 0.00 68 1016.4
20210422042619 21 358 0.0 0.0 0.00 0.00 0.00 69 1016.4
20210422042359 21 358 0.0 0.0 0.00 0.00 0.00 69 1016.4
20210422042117 21 358 0.0 0.0 0.00 0.00 0.00 69 1016.4
20210422041617 21 358 0.0 0.0 0.00 0.00 0.00 69 1016.4
20210422041117 21 358 0.0 0.0 0.00 0.00 0.00 70 1016.4
20210422040617 20 358 0.0 0.0 0.00 0.00 0.00 71 1016.4
20210422040116 20 358 0.0 0.0 0.00 0.00 0.00 71 1016.5
20210422035616 20 358 0.0 0.0 0.00 0.00 0.00 72 1016.5
20210422035116 20 358 0.0 0.0 0.00 0.00 0.00 73 1016.4
20210422034615 20 358 0.0 0.0 0.00 0.00 0.00 74 1016.4
20210422034115 20 358 0.0 0.0 0.00 0.00 0.00 74 1016.5
20210422033615 20 358 0.0 0.0 0.00 0.00 0.00 75 1016.6
20210422032615 20 358 0.0 0.0 0.00 0.00 0.00 76 1016.6
20210422032114 20 358 0.0 0.0 0.00 0.00 0.00 77 1016.7
20210422031617 20 358 0.0 0.0 0.00 0.00 0.00 76 1016.6
20210422031113 20 358 0.0 0.0 0.00 0.00 0.00 76 1016.6
20210422030613 20 358 0.0 0.0 0.00 0.00 0.00 76 1016.6
20210422030113 20 358 0.0 0.0 0.00 0.00 0.00 76 1016.6
20210422025112 20 358 0.0 0.0 0.00 0.00 0.00 76 1016.6
20210422024612 20 358 0.0 0.0 0.00 0.00 0.00 75 1016.7
20210422024112 20 358 0.0 0.0 0.00 0.00 0.00 75 1016.6
20210422023612 20 358 0.0 0.0 0.00 0.00 0.00 75 1016.6
20210422023112 20 358 0.0 0.0 0.00 0.00 0.00 74 1016.6
20210422022611 20 358 0.0 0.0 0.00 0.00 0.00 74 1016.5
20210422022110 20 358 0.0 0.0 0.00 0.00 0.00 74 1016.5
20210422021610 20 358 0.0 0.0 0.00 0.00 0.00 74 1016.5
20210422021110 20 358 0.0 0.0 0.00 0.00 0.00 74 1016.4
20210422020610 20 358 0.0 0.0 0.00 0.00 0.00 74 1016.4
20210422020109 21 358 0.0 0.0 0.00 0.00 0.00 74 1016.3
20210422015610 21 358 0.0 0.0 0.00 0.00 0.00 73 1016.2
20210422015215 21 358 0.0 0.0 0.00 0.00 0.00 73 1016.2
20210422015110 21 358 0.0 0.0 0.00 0.00 0.00 73 1016.2
20210422014613 21 358 0.0 0.0 0.00 0.00 0.00 72 1016.2
20210422014108 21 358 0.0 0.0 0.00 0.00 0.00 72 1016.2
20210422013608 21 358 0.0 0.0 0.00 0.00 0.00 72 1016.2
20210422013049 21 358 0.0 0.0 0.00 0.00 0.00 71 1016.0
20210422012710 21 358 0.0 0.0 0.00 0.00 0.00 71 1016.0
20210422012607 21 358 0.0 0.0 0.00 0.00 0.00 71 1016.0
20210422012339 21 358 0.0 0.0 0.00 0.00 0.00 71 1015.9
20210422012107 21 358 0.0 0.0 0.00 0.00 0.00 71 1015.9
20210422011607 21 358 0.0 0.0 0.00 0.00 0.00 71 1016.0
20210422011107 21 358 0.0 0.0 0.00 0.00 0.00 70 1016.0
20210422010606 21 358 0.0 0.0 0.00 0.00 0.00 70 1016.0
20210422010108 22 358 0.0 0.0 0.00 0.00 0.00 70 1016.2
20210422005734 22 358 0.0 0.0 0.00 0.00 0.00 69 1016.1
20210422005605 22 358 0.0 0.0 0.00 0.00 0.00 69 1016.1
20210422005105 22 358 0.0 0.0 0.00 0.00 0.00 69 1016.1
20210422004605 22 358 0.0 0.0 0.00 0.00 0.00 69 1016.1
20210422004105 22 358 0.0 0.0 0.00 0.00 0.00 69 1016.1
20210422003605 22 358 0.0 0.0 0.00 0.00 0.00 68 1016.1
20210422003106 22 358 0.0 0.0 0.00 0.00 0.00 67 1016.1
20210422002604 22 358 0.0 0.0 0.00 0.00 0.00 67 1016.2
20210422002359 22 358 0.0 0.0 0.00 0.00 0.00 67 1016.2
20210422002103 22 358 0.0 0.0 0.00 0.00 0.00 67 1016.2
20210422001540 22 358 0.0 0.0 0.00 0.00 0.00 66 1016.1
20210422001103 22 358 0.0 0.0 0.00 0.00 0.00 66 1016.1
20210422000602 22 358 0.0 0.0 0.00 0.00 0.00 66 1016.0
20210422000102 22 358 0.0 0.0 0.00 0.00 0.00 65 1015.9
20210421235602 22 358 0.0 0.0 0.00 0.00 0.00 65 1015.9
20210421235102 23 358 0.0 0.0 0.00 0.00 0.00 66 1015.8
20210421234602 23 358 0.0 0.0 0.00 0.00 0.00 66 1015.9
20210421234101 23 358 0.0 0.0 0.00 0.00 0.00 65 1015.9
20210421233736 23 358 0.0 0.0 0.00 0.00 0.00 65 1015.8
20210421233601 23 358 0.0 0.0 0.00 0.00 0.00 65 1015.8
20210421233314 23 358 0.0 0.0 0.00 0.00 0.00 64 1015.8
20210421233102 23 358 0.0 0.0 0.00 0.00 0.00 64 1015.8
20210421232601 23 358 0.0 0.0 0.00 0.00 0.00 63 1015.9
20210421232100 23 358 0.0 0.0 0.00 0.00 0.00 62 1015.8
20210421231600 23 358 0.0 0.0 0.00 0.00 0.00 62 1015.7
20210421231059 23 358 0.0 0.0 0.00 0.00 0.00 62 1015.7
20210421230600 24 358 0.0 0.0 0.00 0.00 0.00 61 1015.6
20210421230101 24 358 0.0 0.0 0.00 0.00 0.00 61 1015.5
20210421225600 24 358 0.0 0.0 0.00 0.00 0.00 60 1015.5
20210421224559 25 358 0.0 0.0 0.00 0.00 0.00 58 1015.5
20210421224058 25 358 0.0 0.0 0.00 0.00 0.00 58 1015.5
20210421223057 25 358 0.0 0.0 0.00 0.00 0.00 58 1015.5
20210421222056 25 358 0.0 0.0 0.00 0.00 0.00 58 1015.4
20210421221556 25 358 0.0 0.0 0.00 0.00 0.00 59 1015.3
20210421221056 25 358 0.0 0.0 0.00 0.00 0.00 59 1015.4
20210421220555 25 358 0.0 0.0 0.00 0.00 0.00 59 1015.3
20210421220058 25 358 0.0 0.0 0.00 0.00 0.00 58 1015.3
20210421215555 25 358 0.0 0.0 0.00 0.00 0.00 56 1015.3
20210421215055 25 358 0.0 0.0 0.00 0.00 0.00 57 1015.3
20210421214803 25 358 0.0 0.0 0.00 0.00 0.00 57 1015.2
20210421214554 25 358 0.0 0.0 0.00 0.00 0.00 57 1015.2
20210421214250 25 358 0.0 0.0 0.00 0.00 0.00 56 1015.2
20210421214054 25 358 0.0 0.0 0.00 0.00 0.00 56 1015.2
20210421213554 25 358 0.0 0.0 0.00 0.00 0.00 57 1015.1
20210421213303 25 358 0.0 0.0 0.00 0.00 0.00 58 1015.1
20210421213053 25 358 0.0 0.0 0.00 0.00 0.00 58 1015.1
20210421212553 25 358 0.0 0.0 0.00 0.00 0.00 56 1015.1
20210421212053 25 358 0.0 0.0 0.00 0.00 0.00 56 1015.1
20210421211553 26 358 0.0 0.0 0.00 0.00 0.00 55 1015.1
20210421211210 26 358 0.0 0.0 0.00 0.00 0.00 57 1015.0
20210421211106 26 358 0.0 0.0 0.00 0.00 0.00 56 1014.9
20210421211053 26 358 0.0 0.0 0.00 0.00 0.00 57 1015.0
20210421210552 26 358 0.0 0.0 0.00 0.00 0.00 56 1015.0
20210421210052 26 358 0.0 0.0 0.00 0.00 0.00 57 1014.9
20210421205821 26 358 0.0 0.0 0.00 0.00 0.00 56 1014.9
20210421205551 26 358 0.0 0.0 0.00 0.00 0.00 56 1014.9
20210421205114 26 358 0.0 0.0 0.00 0.00 0.00 58 1015.0
20210421204052 26 358 0.0 0.0 0.00 0.00 0.00 57 1014.9
20210421203628 26 358 0.0 0.0 0.00 0.00 0.00 57 1014.8
20210421203551 26 358 0.0 0.0 0.00 0.00 0.00 57 1014.9
20210421203051 26 358 0.0 0.0 0.00 0.00 0.00 59 1014.9
20210421202550 26 358 0.0 0.0 0.00 0.00 0.00 56 1014.9
20210421202330 26 358 0.0 0.0 0.00 0.00 0.00 57 1014.9
20210421202051 26 358 0.0 0.0 0.00 0.00 0.00 57 1014.9
20210421201549 26 358 0.0 0.0 0.00 0.00 0.00 57 1014.9
20210421201049 26 358 0.0 0.0 0.00 0.00 0.00 57 1014.8
20210421200548 26 358 0.0 0.0 0.00 0.00 0.00 57 1014.7
20210421200049 26 358 0.0 0.0 0.00 0.00 0.00 56 1014.8
20210421195548 26 358 0.0 0.0 0.00 0.00 0.00 56 1014.8
20210421195059 26 358 0.0 0.0 0.00 0.00 0.00 56 1014.8
20210421194551 26 358 0.0 0.0 0.00 0.00 0.00 55 1014.9
20210421194047 26 358 0.0 0.0 0.00 0.00 0.00 56 1015.0
20210421193547 26 358 0.0 0.0 0.00 0.00 0.00 58 1014.9
20210421193256 26 358 0.0 0.0 0.00 0.00 0.00 57 1014.9
20210421193049 26 358 0.0 0.0 0.00 0.00 0.00 57 1014.9
20210421192547 26 358 0.0 0.0 0.00 0.00 0.00 57 1015.0
20210421192111 26 358 0.0 0.0 0.00 0.00 0.00 58 1015.1
20210421191439 27 358 0.0 0.0 0.00 0.00 0.00 57 1015.2
20210421191045 27 358 0.0 0.0 0.00 0.00 0.00 57 1015.1
20210421190811 27 358 0.0 0.0 0.00 0.00 0.00 57 1015.2
20210421190545 27 358 0.0 0.0 0.00 0.00 0.00 57 1015.2
20210421190218 27 358 0.0 0.0 0.00 0.00 0.00 58 1015.2
20210421190045 27 358 0.0 0.0 0.00 0.00 0.00 58 1015.2
20210421185544 27 358 0.0 0.0 0.00 0.00 0.00 56 1015.3
20210421185312 27 358 0.0 0.0 0.00 0.00 0.00 59 1015.2
20210421185044 27 358 0.0 0.0 0.00 0.00 0.00 59 1015.2
20210421184544 27 358 0.0 0.0 0.00 0.00 0.00 59 1015.3
20210421184205 27 358 0.0 0.0 0.00 0.00 0.00 60 1015.4
20210421184044 27 358 0.0 0.0 0.00 0.00 0.00 60 1015.4
20210421183543 26 358 0.0 0.0 0.00 0.00 0.00 60 1015.5
20210421183043 26 358 0.0 0.0 0.00 0.00 0.00 60 1015.5
20210421182750 26 358 0.0 0.0 0.00 0.00 0.00 59 1015.5
20210421182543 26 358 0.0 0.0 0.00 0.00 0.00 59 1015.5
20210421182221 26 358 0.0 0.0 0.00 0.00 0.00 61 1015.6
20210421182042 26 358 0.0 0.0 0.00 0.00 0.00 61 1015.6
20210421181542 26 358 0.0 0.0 0.00 0.00 0.00 61 1015.7
20210421181216 26 358 0.0 0.0 0.00 0.00 0.00 60 1015.8
20210421181043 26 358 0.0 0.0 0.00 0.00 0.00 60 1015.8
20210421180753 26 358 0.0 0.0 0.00 0.00 0.00 60 1015.9
20210421180541 26 358 0.0 0.0 0.00 0.00 0.00 60 1015.9
20210421180151 26 358 0.0 0.0 0.00 0.00 0.00 62 1015.9
20210421175541 26 358 0.0 0.0 0.00 0.00 0.00 62 1015.9
20210421175053 25 358 0.0 0.0 0.00 0.00 0.00 62 1016.0
20210421175048 25 358 0.0 0.0 0.00 0.00 0.00 60 1016.0
20210421173540 25 358 0.0 0.0 0.00 0.00 0.00 60 1016.0
20210421173039 25 358 0.0 0.0 0.00 0.00 0.00 58 1016.0
20210421172912 25 358 0.0 0.0 0.00 0.00 0.00 59 1016.1